Dewpoint
53 52 50 49 49 49 49 48 50 49 49 49 48 50 49 48 48 49 49 50 49 49 48 50 49 49 50 50 50 50 52 43 40 36 35 33 50 54 53 51 49 50 51 35 34 28 25 30 27 32 27 28 26 24 25 29 30 20 13 14 8 6 8 13 7 9 11 14 18 18 21 18 17 17 19 17 15 19 19 19 20 19 18 17 17 23 25 31
53 53 51 50 49 49 49 49 50 50 49 49 49 48 48 49 50 47 48 50 49 48 48 48 48 49 49 49 49 50 46 41 37 35 33 41 48 52 52 52 49 50 50 36 31 30 26 27 30 32 24 20 29 25 27 22 28 17 15 8 1 13 8 19 13 14 16 16 18 18 21 19 19 18 19 15 15 13 13 14 16 15 16 17 19 20 23 29
51 52 52 50 49 49 49 49 50 50 49 48 47 48 48 48 50 49 48 48 49 48 48 48 48 48 49 49 49 52 41 37 30 24 25 46 52 53 50 49 51 48 38 37 37 32 27 29 30 30 28 23 27 23 27 24 23 22 15 10 7 14 14 20 20 22 18 18 17 18 22 19 20 19 21 17 15 17 14 13 13 13 13 15 20 24 29 31
51 51 51 51 49 50 50 49 49 50 49 48 47 47 48 48 49 48 47 49 50 49 48 48 49 47 48 48 50 48 39 30 19 28 36 52 51 52 51 48 52 49 41 39 38 35 35 36 36 30 26 25 24 26 19 22 16 22 12 11 11 14 11 11 19 22 24 20 20 19 21 18 18 19 19 17 14 13 10 10 8 8 12 20 24 28 30 31
50 50 50 50 50 50 50 48 48 48 48 46 47 46 49 49 49 49 48 47 49 49 48 48 48 47 48 48 50 43 40 5 19 36 41 52 50 50 47 52 52 42 41 40 35 36 35 33 33 32 27 18 25 23 23 25 25 21 13 16 18 18 13 14 17 23 24 26 19 19 17 19 22 18 20 19 16 8 14 12 12 15 17 22 24 27 30 30
49 50 49 49 50 50 50 49 48 48 48 47 47 47 47 48 48 47 50 50 48 47 49 49 48 47 47 49 46 42 18 -7 24 35 50 48 48 47 49 50 48 39 35 34 34 33 32 31 29 23 22 22 23 18 19 24 27 17 19 21 22 18 15 18 18 21 19 19 18 17 21 20 20 20 18 18 16 12 19 21 19 18 20 23 27 28 27 28
50 49 50 49 50 50 49 50 49 49 48 47 48 47 46 46 46 47 48 50 49 47 47 49 49 47 48 48 40 34 18 22 34 37 47 46 48 51 48 54 48 32 30 29 31 30 32 30 28 27 24 22 21 20 25 26 26 19 13 19 17 23 19 19 20 22 16 16 19 23 24 20 21 19 22 17 16 17 16 17 22 26 28 28 24 25 26 26
50 50 49 49 49 50 49 48 48 49 49 48 47 47 47 47 47 46 46 49 49 47 46 48 48 47 49 41 34 31 28 28 31 37 48 49 43 47 49 36 34 32 28 27 30 30 31 30 28 28 22 20 22 21 25 25 25 22 19 25 21 21 22 25 24 21 20 18 20 21 19 19 22 20 21 15 16 19 20 22 24 25 26 27 27 25 26 28
51 51 50 49 49 49 49 48 48 49 49 49 48 47 47 47 47 47 46 47 48 47 47 47 47 47 49 40 35 19 22 32 36 41 41 39 37 37 36 34 35 30 32 33 33 30 29 27 28 27 19 21 24 24 25 25 21 24 23 25 25 20 21 20 21 20 18 18 19 18 17 21 22 25 18 16 14 19 24 25 25 26 25 26 26 28 28 29
53 52 51 50 49 49 49 48 48 49 50 50 49 48 47 47 47 47 46 47 48 47 47 48 48 48 45 40 34 16 23 35 41 42 39 37 36 35 36 37 32 31 28 30 29 28 27 27 28 31 29 22 27 22 25 23 18 23 24 24 19 19 23 24 20 22 21 18 17 14 14 17 22 17 8 18 19 23 23 24 28 27 26 28 29 31 32 32
54 53 52 52 51 50 49 49 49 50 50 50 50 49 47 47 47 46 46 46 47 48 48 48 47 48 44 41 31 21 30 37 40 40 38 37 36 34 34 36 35 33 32 33 30 29 28 30 33 31 22 22 22 18 23 22 23 23 20 20 20 22 23 23 22 21 21 18 18 16 18 20 23 17 12 15 28 28 22 25 27 28 28 28 29 30 31 32
54 55 53 53 52 51 51 50 50 50 50 50 50 49 47 47 46 46 45 45 46 46 47 48 46 49 45 42 38 30 34 36 38 39 39 37 36 36 36 37 36 34 30 29 32 34 33 30 32 24 18 23 15 21 20 26 24 23 19 14 16 17 16 21 19 22 20 18 22 20 18 14 21 16 18 20 24 24 24 24 26 26 26 26 26 28 28 28
53 53 53 54 53 53 52 51 51 50 51 50 50 50 48 48 47 46 45 45 45 47 48 47 48 47 43 37 39 41 40 38 39 37 38 39 38 38 39 38 37 35 34 33 32 34 36 35 32 26 27 24 21 11 19 28 25 22 19 16 17 17 9 16 24 23 19 17 24 19 -2 -3 9 18 20 23 23 26 23 22 23 25 26 27 26 26 26 26
51 52 52 52 53 53 53 52 52 52 52 51 51 50 50 49 48 47 46 45 46 44 47 47 49 46 43 37 39 38 40 41 39 38 36 39 35 36 37 38 39 38 38 35 35 35 37 35 31 28 30 24 20 28 24 25 22 15 18 18 11 7 5 11 22 22 18 24 23 17 2 -3 14 18 23 26 26 25 21 20 22 24 25 24 24 24 24 25
51 51 51 51 52 52 53 53 52 52 52 52 51 50 50 49 48 48 47 47 46 45 46 48 48 44 39 39 42 43 46 38 38 36 39 35 35 33 34 37 37 38 37 37 36 37 36 32 27 22 21 30 22 17 13 20 20 22 6 1 14 3 6 13 21 20 16 24 25 15 9 6 9 12 20 26 27 25 23 22 21 22 22 22 22 22 22 23
49 50 50 51 51 51 52 53 54 52 52 52 52 51 51 50 49 49 49 48 46 43 48 44 43 42 38 34 35 45 37 35 36 37 37 37 34 32 34 36 36 36 36 34 38 34 33 34 25 25 24 21 20 15 12 3 4 17 3 6 6 10 10 9 21 24 25 23 22 16 8 16 12 17 23 26 24 23 20 18 17 21 22 21 21 22 22 23
46 48 50 50 50 50 51 51 52 53 53 52 52 51 51 51 51 50 48 47 49 49 46 42 45 44 32 35 36 32 34 35 36 36 37 38 36 36 35 33 33 32 31 31 31 28 27 26 25 22 24 20 19 14 2 -0 0 1 15 3 12 7 10 2 15 20 21 22 17 19 16 13 13 15 20 22 22 22 18 18 18 19 19 19 19 20 21 22
45 45 48 49 48 49 50 51 51 52 53 53 52 51 51 50 50 47 44 48 46 45 44 46 43 40 33 35 32 30 33 34 35 36 36 38 37 36 35 33 32 29 26 21 23 21 25 18 24 18 19 21 12 5 0 -2 -4 -5 6 12 10 13 11 2 9 14 18 18 18 16 16 16 17 18 18 21 23 21 18 18 17 17 16 17 18 20 20 20
43 43 44 46 47 48 48 50 51 51 51 53 52 49 49 47 46 45 43 43 40 34 27 30 36 19 15 26 32 33 34 35 36 37 36 36 38 36 35 33 28 22 18 18 16 19 23 22 21 18 15 19 12 7 -1 5 7 -3 2 5 8 1 6 12 16 18 19 15 16 15 15 14 15 16 15 15 22 20 19 18 17 16 17 19 20 20 20 21
41 42 42 43 45 47 47 48 49 49 50 52 47 44 43 39 38 39 42 43 38 33 31 31 36 33 30 31 33 35 38 36 34 34 36 37 35 33 31 30 27 25 19 14 24 17 23 13 14 12 11 18 16 9 3 17 15 14 17 12 9 4 10 17 18 21 22 15 15 14 17 16 16 16 15 14 15 18 17 16 17 18 18 19 19 19 19 20
40 41 42 42 43 45 47 48 48 48 49 50 46 44 38 37 34 33 38 38 39 39 36 35 35 34 30 34 34 34 32 32 33 33 37 42 36 31 28 26 23 20 18 19 24 23 21 11 10 13 15 16 16 13 16 17 17 15 16 12 10 13 11 17 12 20 23 13 16 16 15 16 17 18 18 17 17 17 17 17 17 16 16 17 17 17 18 19
39 40 40 40 41 42 45 47 47 48 49 47 46 42 40 41 40 38 36 32 36 39 39 38 36 35 36 36 36 35 33 31 32 33 36 36 33 28 27 24 22 19 23 24 21 18 17 13 13 14 14 13 15 17 18 15 12 15 9 11 9 13 16 17 17 21 22 16 16 18 17 17 18 18 17 16 16 14 14 15 14 14 14 15 17 17 19 21
41 39 39 39 40 41 43 45 46 49 48 45 43 42 40 42 43 41 38 36 34 37 38 38 37 36 35 35 37 36 33 30 29 33 35 35 31 30 26 24 22 21 23 23 18 16 13 16 18 17 14 14 17 18 18 17 16 12 12 5 2 10 1 8 16 19 21 17 16 18 16 15 17 19 18 16 15 16 20 21 21 20 18 17 17 18 20 21
42 40 40 39 40 40 42 44 46 47 46 46 44 43 44 43 43 42 39 32 31 33 35 36 37 36 35 34 36 35 33 31 29 31 38 34 31 29 26 24 22 21 20 22 18 16 10 18 21 17 15 12 13 19 18 15 13 17 14 10 5 9 8 5 12 18 18 17 14 13 12 8 8 15 15 18 20 19 19 19 21 22 23 21 23 23 22 20
41 40 40 40 39 40 41 44 46 43 44 45 45 44 44 45 44 43 39 34 32 30 34 34 36 36 35 38 38 33 33 32 30 31 37 35 30 28 26 26 22 19 19 23 20 18 16 18 21 17 15 12 15 17 18 16 11 13 17 14 12 12 9 11 16 12 15 15 16 13 3 2 10 9 13 17 17 15 16 13 13 14 18 21 22 22 23 26
40 42 39 40 40 41 42 42 42 41 43 42 45 46 45 45 45 43 39 28 24 27 28 26 35 30 37 33 36 34 34 30 33 34 38 36 40 28 26 24 23 20 21 23 21 20 19 20 20 18 16 15 14 12 18 14 8 7 8 16 16 15 11 13 13 10 6 5 13 17 -3 -1 3 7 15 17 17 18 16 16 14 15 16 16 17 18 20 22
41 41 41 40 41 42 39 35 41 42 38 41 43 45 46 45 46 43 33 23 20 27 24 29 30 28 31 32 34 30 21 24 35 37 37 39 33 36 25 25 24 25 23 21 17 18 20 20 20 20 18 17 15 13 17 14 11 9 18 18 18 15 12 12 13 10 14 16 15 15 14 5 5 10 14 15 13 15 16 16 15 15 17 19 19 19 19 21
40 40 41 41 41 42 38 41 40 37 38 42 44 45 46 45 45 43 30 16 14 25 24 26 29 32 34 34 33 26 27 27 28 33 34 35 33 31 25 23 23 22 23 19 13 12 21 18 18 19 18 18 16 15 19 15 11 13 20 20 16 14 14 14 15 13 13 8 8 11 11 3 9 11 12 6 8 13 16 18 16 15 15 17 18 19 20 20
39 40 40 40 42 42 41 40 39 35 42 42 44 45 45 44 42 34 24 15 20 22 33 28 36 33 32 33 29 28 28 31 26 33 35 35 34 31 25 24 24 22 23 20 14 16 22 20 19 20 17 15 17 18 19 16 11 20 21 20 18 17 15 13 13 8 7 2 4 10 9 -2 2 6 4 8 7 12 15 18 18 17 17 15 17 18 19 20
39 39 39 40 40 39 38 38 36 39 41 42 44 45 44 42 35 24 18 10 22 20 27 29 30 27 31 29 27 27 27 30 31 34 33 31 32 31 29 29 24 20 19 22 21 19 17 26 28 18 18 16 22 22 20 18 20 22 20 18 16 13 9 3 4 3 -1 -5 4 11 10 3 -4 -2 10 4 11 12 11 14 16 14 18 19 20 20 21 20
38 39 39 40 37 37 36 32 34 38 39 42 43 43 41 35 26 19 14 16 22 23 28 29 26 32 29 28 26 29 25 27 31 33 31 32 29 29 27 24 25 19 17 20 21 20 19 22 22 23 25 23 22 21 23 23 22 20 13 11 12 8 9 0 -7 -2 -4 0 -1 -1 6 -0 -2 4 8 10 12 11 9 9 13 10 13 18 17 19 20 21
38 38 40 39 39 38 33 31 33 38 40 41 41 36 35 22 27 17 15 24 15 19 23 23 27 29 29 25 25 27 24 25 31 32 30 30 29 28 27 22 23 16 15 19 17 17 19 21 20 22 28 21 21 19 20 18 21 18 15 14 8 -3 -7 -7 -1 -4 -3 -5 1 0 1 0 3 7 8 8 7 7 12 12 13 13 14 15 16 18 20 21
38 40 40 39 39 35 36 37 38 38 39 40 37 33 26 20 13 19 21 18 13 18 19 27 27 29 28 25 23 24 23 23 30 30 31 30 28 28 28 23 22 19 15 17 18 15 18 18 20 20 23 25 20 14 18 14 19 17 16 11 4 -6 -10 -12 -9 -11 -6 -2 1 3 3 2 10 10 9 7 7 6 8 12 14 14 15 15 17 19 19 21
38 38 36 38 38 38 37 38 38 37 38 39 34 26 22 16 14 22 21 21 16 24 24 24 30 30 29 25 24 27 24 24 29 28 31 28 28 26 27 27 23 20 11 16 18 18 12 10 18 22 20 24 19 15 18 16 18 17 14 13 8 3 -4 -8 -10 -6 -1 -2 3 3 1 5 2 14 10 12 12 13 13 12 14 15 15 16 17 17 17 17
39 37 35 36 36 36 37 38 36 38 38 34 27 21 13 11 18 20 19 21 22 25 24 27 27 28 26 27 23 26 26 25 30 30 29 28 25 27 26 26 27 22 10 14 16 14 17 15 19 24 23 23 19 20 21 21 18 17 18 16 8 5 6 -7 -3 -6 -6 -4 -2 0 5 9 10 16 13 13 13 13 15 16 18 15 16 16 16 15 15 17
38 34 34 33 33 33 34 36 36 38 36 30 21 15 12 14 16 21 21 25 23 22 26 28 28 26 24 27 25 24 24 24 28 29 28 28 28 26 28 27 27 26 20 17 16 13 15 15 21 23 24 23 20 22 21 21 12 19 17 13 13 13 10 2 0 -3 -5 -4 -0 3 9 9 9 4 4 5 5 7 9 11 13 14 16 16 15 15 15 16
34 34 30 30 31 31 32 35 37 37 34 26 18 11 16 18 20 22 26 26 24 23 23 19 22 23 23 22 25 25 24 26 27 27 23 29 26 28 27 27 28 27 26 21 18 19 17 17 20 22 21 24 26 27 23 26 22 19 15 17 14 16 15 8 -0 -5 -10 -3 -1 5 0 -0 -1 -0 9 6 3 3 4 6 8 12 15 15 15 16 16 17
33 32 33 31 31 31 32 34 36 35 30 21 15 20 19 17 21 22 24 24 25 25 23 22 17 25 22 23 24 25 26 25 25 26 23 27 21 30 27 26 28 28 28 27 20 23 21 16 19 18 23 25 27 24 23 25 27 19 17 21 14 9 5 10 5 -3 -6 -7 -1 2 4 5 3 1 5 4 5 5 4 6 7 7 10 14 15 16 17 17
32 32 27 28 30 32 31 36 35 32 24 16 15 16 17 18 20 20 21 22 24 24 22 24 24 23 23 23 22 25 26 23 27 25 23 25 23 28 27 27 25 28 28 28 23 22 23 17 19 19 23 25 24 22 18 20 24 23 21 16 18 17 6 5 4 1 3 -5 -10 1 -1 2 7 6 4 1 4 8 7 9 8 8 8 9 13 16 16 18
28 26 24 30 31 36 35 35 32 28 19 13 15 16 19 15 17 19 19 21 22 24 24 23 25 25 26 24 25 23 26 24 25 24 24 24 25 27 26 28 26 27 28 28 25 24 21 22 16 21 23 25 20 21 19 20 19 18 16 13 12 10 15 14 4 4 1 -6 -5 -6 -1 5 9 9 5 3 2 2 5 9 12 12 11 10 11 14 17 18
27 24 24 29 29 33 31 26 22 19 16 19 19 17 17 15 19 19 21 23 21 23 21 22 22 21 24 25 25 25 25 25 25 24 25 22 25 20 26 27 27 25 28 27 26 24 21 21 17 21 20 20 21 22 24 22 21 19 18 15 15 14 11 6 6 9 -1 -3 -1 -3 -1 3 11 13 7 5 4 4 10 9 12 14 14 13 13 14 16 18
26 18 21 30 31 31 26 17 14 15 15 16 14 15 13 21 19 19 18 17 17 15 20 22 23 24 24 24 26 27 25 24 24 24 24 23 24 23 21 28 27 28 27 25 25 26 23 24 22 15 17 19 21 23 27 25 23 22 21 18 19 18 16 9 5 9 3 6 5 2 -3 4 10 15 11 10 8 7 10 13 13 13 15 15 15 17 19 19
25 21 26 27 29 26 24 17 19 20 16 16 16 16 18 17 16 15 14 14 13 15 15 17 22 23 25 26 26 26 27 24 23 23 23 24 23 25 23 27 28 28 28 26 27 26 29 21 20 20 22 23 24 26 25 25 25 21 21 22 19 17 17 14 10 14 9 4 3 2 -1 4 10 15 13 11 13 13 11 12 16 17 16 15 16 17 19 21
25 24 24 28 27 26 21 11 12 13 14 10 13 15 17 15 14 13 12 13 13 12 12 13 16 18 18 21 19 16 19 18 27 26 24 25 24 26 25 27 28 27 26 26 25 27 22 24 22 18 14 16 19 22 22 24 23 22 20 20 20 18 17 16 14 12 6 10 8 6 2 4 11 17 17 14 13 12 11 12 13 15 17 19 16 16 19 21
25 23 25 27 31 26 18 19 15 10 10 9 7 9 10 12 16 16 14 13 15 16 15 14 15 17 16 17 15 17 20 21 20 26 28 26 25 25 25 27 28 27 27 28 30 27 23 22 22 16 13 11 9 10 13 17 20 21 21 20 20 19 16 15 12 12 9 11 10 7 6 5 8 12 10 11 12 11 11 13 15 14 15 18 19 18 17 20
20 13 20 14 27 27 24 23 20 15 10 6 7 11 11 10 13 15 16 15 16 15 14 14 14 15 15 16 17 18 19 22 22 23 27 26 27 25 24 26 28 27 29 31 32 27 22 25 23 20 18 15 16 17 21 22 20 19 19 20 19 19 19 17 16 13 10 12 10 9 8 7 8 8 10 10 12 10 9 11 13 14 15 17 18 19 18 18
17 16 14 9 10 17 21 24 20 20 16 17 12 12 9 11 11 10 16 11 16 17 19 20 20 19 18 18 17 18 19 19 19 19 21 25 26 25 21 24 26 28 31 31 32 26 20 22 23 23 21 21 20 21 20 20 18 18 18 19 19 19 18 17 16 13 15 14 10 13 12 12 9 9 10 10 10 11 12 12 12 14 16 17 17 19 25 19
17 17 18 14 9 5 9 14 21 20 20 19 14 14 13 12 11 9 12 15 16 18 15 17 21 22 20 16 17 15 15 16 16 15 20 21 19 19 17 21 24 28 30 27 30 25 22 20 23 23 22 22 21 20 20 19 18 18 18 18 19 19 19 18 17 16 15 14 11 12 12 11 11 11 11 11 10 9 9 9 12 13 15 17 18 18 19 19
22 19 14 17 11 12 13 11 15 18 18 18 16 15 11 12 12 13 11 10 10 10 13 10 11 12 13 16 17 14 14 11 11 15 17 18 17 17 15 17 23 25 25 26 28 26 23 20 22 23 22 22 21 21 20 19 18 18 18 18 19 19 19 18 18 17 17 16 16 14 13 12 13 12 12 12 13 13 12 13 15 14 14 17 18 18 18 18
18 19 16 19 19 17 16 16 16 15 14 17 10 13 11 10 10 11 12 11 9 10 12 12 13 14 16 16 15 14 16 17 18 16 18 19 16 16 15 17 19 20 21 21 25 27 24 19 23 22 21 21 22 22 21 19 19 18 18 18 18 19 19 19 18 18 18 16 16 15 15 14 15 15 13 14 13 14 13 13 13 15 15 16 17 17 17 17
24 24 14 7 13 17 19 18 17 16 14 14 12 13 14 12 11 12 12 13 12 10 9 10 13 13 14 13 14 16 19 18 19 19 21 20 15 17 17 16 20 18 18 20 21 25 25 21 23 21 19 19 21 22 22 22 21 20 19 18 18 18 18 19 18 18 17 16 16 15 15 14 16 16 16 15 13 13 12 12 13 13 13 15 15 16 17 17
24 25 24 22 15 20 16 16 17 16 12 15 14 13 12 12 13 13 10 12 14 14 13 12 13 12 12 13 15 17 19 20 22 23 22 22 23 22 23 22 22 20 19 19 20 21 25 23 21 20 19 18 20 21 22 22 22 20 20 19 18 18 19 19 20 20 19 18 16 16 15 16 16 17 14 14 13 13 13 13 14 14 14 15 15 15 16 17